When you browse on this site, cookies collect data to enhance your experience and personalize the content and advertising you see.
Visit our Privacy Policy to learn more. By continuing to use the site, you agree to this use of cookies and data.
  • In Switzerland
  • List of Countries
  • For 7 days
  • Water Temperature
  • Weather Map
  • Weather Widgets
  • user-avatar
    Login

    Hourly Weather Girdovka

    Today, 19 February, Wednesday

    Time Temperature Precipitation Wind Pressure Humidity
    00:00 +1°C° 0.1 mm 6 mps 741 mmHg 90%
    01:00 +1°C° 0.1 mm 6 mps 741 mmHg 86%
    02:00 -1°C° 0.1 mm 6 mps 741 mmHg 82%
    03:00 0°C° 0 mm 5 mps 741 mmHg 83%
    04:00 0°C° 0 mm 5 mps 741 mmHg 83%
    05:00 0°C° 0 mm 5 mps 741 mmHg 84%
    06:00 -1°C° 0 mm 5 mps 741 mmHg 86%
    07:00 -1°C° 0 mm 5 mps 741 mmHg 88%
    08:00 -1°C° 0 mm 5 mps 741 mmHg 90%
    09:00 -1°C° 0 mm 5 mps 741 mmHg 87%
    10:00 0°C° 0 mm 5 mps 741 mmHg 83%
    11:00 +1°C° 0 mm 5 mps 741 mmHg 80%
    12:00 +1°C° 0 mm 5 mps 741 mmHg 78%
    13:00 +2°C° 0 mm 5 mps 741 mmHg 76%
    14:00 +2°C° 0 mm 5 mps 741 mmHg 74%
    15:00 +3°C° 0 mm 4 mps 740 mmHg 75%
    16:00 +3°C° 0 mm 4 mps 740 mmHg 76%
    17:00 +3°C° 0 mm 3 mps 740 mmHg 77%
    18:00 +3°C° 0 mm 3 mps 740 mmHg 79%
    19:00 +2°C° 0 mm 3 mps 740 mmHg 80%
    20:00 +2°C° 0 mm 3 mps 740 mmHg 82%
    21:00 +2°C° 0 mm 3 mps 740 mmHg 83%
    22:00 +1°C° 0 mm 3 mps 740 mmHg 84%
    23:00 +1°C° 0 mm 3 mps 740 mmHg 84%

    Tomorrow, 20 February, Thursday

    Time Temperature Precipitation Wind Pressure Humidity
    00:00 +1°C° 0 mm 3 mps 740 mmHg 86%
    01:00 0°C° 0 mm 3 mps 740 mmHg 87%
    02:00 0°C° 0 mm 3 mps 740 mmHg 89%
    03:00 0°C° 0 mm 3 mps 740 mmHg 91%
    04:00 +1°C° 0 mm 2 mps 740 mmHg 92%
    05:00 +1°C° 0 mm 2 mps 740 mmHg 94%
    06:00 +1°C° 0.2 mm 2 mps 740 mmHg 95%
    07:00 +2°C° 0.2 mm 2 mps 740 mmHg 97%
    08:00 +2°C° 0.2 mm 2 mps 741 mmHg 98%
    09:00 +2°C° 0.2 mm 2 mps 741 mmHg 98%
    10:00 +2°C° 0.2 mm 2 mps 741 mmHg 97%
    11:00 +2°C° 0.2 mm 2 mps 742 mmHg 97%
    12:00 +2°C° 0.1 mm 2 mps 742 mmHg 96%
    13:00 +2°C° 0.1 mm 2 mps 743 mmHg 96%
    14:00 +2°C° 0.1 mm 2 mps 743 mmHg 95%
    15:00 +2°C° 0.1 mm 2 mps 743 mmHg 95%
    16:00 +3°C° 0.1 mm 1 mps 743 mmHg 96%
    17:00 +3°C° 0.1 mm 1 mps 744 mmHg 96%
    18:00 +3°C° 0.1 mm 1 mps 744 mmHg 96%
    19:00 +3°C° 0.1 mm 1 mps 744 mmHg 95%
    20:00 +3°C° 0.1 mm 1 mps 745 mmHg 95%
    21:00 +2°C° 0 mm 1 mps 745 mmHg 94%
    22:00 +1°C° 0 mm 2 mps 745 mmHg 94%
    23:00 +1°C° 0 mm 2 mps 745 mmHg 93%

    Day after tomorrow, 21 February, Friday

    Time Temperature Precipitation Wind Pressure Humidity
    00:00 +1°C° 0 mm 2 mps 745 mmHg 92%
    01:00 -1°C° 0 mm 2 mps 745 mmHg 90%
    02:00 -1°C° 0 mm 2 mps 745 mmHg 88%
    03:00 -1°C° 0 mm 3 mps 745 mmHg 89%
    04:00 -1°C° 0 mm 3 mps 744 mmHg 89%
    05:00 -1°C° 0 mm 3 mps 744 mmHg 89%
    06:00 -2°C° 0 mm 4 mps 744 mmHg 90%
    07:00 -2°C° 0 mm 4 mps 743 mmHg 91%
    08:00 -2°C° 0 mm 4 mps 743 mmHg 91%
    15:00 +2°C° 0.1 mm 6 mps 741 mmHg 68%
    16:00 +1°C° 0.1 mm 5 mps 741 mmHg 76%
    17:00 0°C° 0.1 mm 4 mps 741 mmHg 84%
    18:00 0°C° 0.3 mm 4 mps 742 mmHg 88%
    19:00 +1°C° 0.3 mm 3 mps 743 mmHg 92%
    20:00 0°C° 0.3 mm 3 mps 744 mmHg 96%
    21:00 0°C° 0 mm 3 mps 744 mmHg 96%
    22:00 +1°C° 0 mm 2 mps 744 mmHg 95%
    23:00 +1°C° 0 mm 2 mps 745 mmHg 94%

    22 February, Saturday

    Time Temperature Precipitation Wind Pressure Humidity
    00:00 -1°C° 0 mm 2 mps 745 mmHg 94%
    01:00 -1°C° 0 mm 2 mps 746 mmHg 93%
    02:00 -1°C° 0 mm 3 mps 746 mmHg 92%
    03:00 -1°C° 0 mm 3 mps 746 mmHg 92%
    04:00 -1°C° 0 mm 3 mps 746 mmHg 91%
    05:00 0°C° 0 mm 3 mps 747 mmHg 91%
    06:00 -1°C° 0 mm 3 mps 747 mmHg 92%
    07:00 -1°C° 0 mm 3 mps 747 mmHg 93%
    08:00 -2°C° 0 mm 3 mps 747 mmHg 93%
    09:00 -1°C° 0 mm 4 mps 747 mmHg 88%
    10:00 0°C° 0 mm 5 mps 747 mmHg 82%
    11:00 +1°C° 0 mm 5 mps 747 mmHg 76%
    12:00 +2°C° 0 mm 6 mps 746 mmHg 73%
    13:00 +2°C° 0 mm 7 mps 746 mmHg 69%
    14:00 +3°C° 0 mm 7 mps 745 mmHg 65%
    15:00 +2°C° 0 mm 7 mps 745 mmHg 67%
    16:00 +2°C° 0 mm 7 mps 744 mmHg 69%
    17:00 0°C° 0 mm 7 mps 743 mmHg 70%
    18:00 0°C° 0 mm 7 mps 742 mmHg 71%
    19:00 0°C° 0 mm 8 mps 741 mmHg 72%
    20:00 0°C° 0 mm 8 mps 740 mmHg 72%
    21:00 0°C° 0.1 mm 9 mps 739 mmHg 75%
    22:00 0°C° 0.1 mm 9 mps 738 mmHg 77%
    23:00 0°C° 0.1 mm 10 mps 737 mmHg 80%

    23 February, Sunday

    Time Temperature Precipitation Wind Pressure Humidity
    00:00 0°C° 0.5 mm 10 mps 736 mmHg 81%
    01:00 +1°C° 0.5 mm 9 mps 735 mmHg 83%
    02:00 +1°C° 0.5 mm 9 mps 734 mmHg 85%
    03:00 +1°C° 0.4 mm 9 mps 733 mmHg 86%
    04:00 +1°C° 0.4 mm 9 mps 733 mmHg 87%
    05:00 +2°C° 0.4 mm 9 mps 732 mmHg 89%
    06:00 +1°C° 0.6 mm 8 mps 732 mmHg 84%
    07:00 +1°C° 0.6 mm 8 mps 732 mmHg 80%
    08:00 0°C° 0.6 mm 7 mps 732 mmHg 76%
    09:00 0°C° 0.1 mm 8 mps 732 mmHg 73%
    10:00 0°C° 0.1 mm 8 mps 733 mmHg 69%
    11:00 +1°C° 0.1 mm 9 mps 733 mmHg 65%
    12:00 +1°C° 0.1 mm 9 mps 733 mmHg 62%
    13:00 +1°C° 0.1 mm 9 mps 733 mmHg 59%
    14:00 +1°C° 0.1 mm 9 mps 734 mmHg 56%
    15:00 +1°C° 0 mm 8 mps 734 mmHg 58%
    16:00 +2°C° 0 mm 7 mps 734 mmHg 60%
    17:00 0°C° 0 mm 7 mps 734 mmHg 62%
    18:00 +1°C° 0 mm 6 mps 734 mmHg 65%
    19:00 0°C° 0 mm 5 mps 734 mmHg 68%
    20:00 -1°C° 0 mm 5 mps 734 mmHg 71%
    21:00 -1°C° 0 mm 5 mps 733 mmHg 73%
    22:00 -1°C° 0 mm 5 mps 733 mmHg 74%
    23:00 -1°C° 0 mm 5 mps 732 mmHg 76%

    24 February, Monday

    Time Temperature Precipitation Wind Pressure Humidity
    00:00 -2°C° 0 mm 4 mps 732 mmHg 79%
    01:00 -2°C° 0 mm 4 mps 731 mmHg 83%
    02:00 -2°C° 0 mm 4 mps 730 mmHg 86%
    03:00 -2°C° 0.1 mm 4 mps 729 mmHg 89%
    04:00 -2°C° 0.1 mm 4 mps 729 mmHg 93%
    05:00 -2°C° 0.1 mm 4 mps 728 mmHg 96%
    06:00 -2°C° 0.3 mm 4 mps 729 mmHg 95%
    07:00 -2°C° 0.3 mm 4 mps 729 mmHg 94%
    08:00 -2°C° 0.3 mm 5 mps 729 mmHg 93%
    09:00 -2°C° 0.1 mm 5 mps 730 mmHg 93%
    10:00 -3°C° 0.1 mm 6 mps 730 mmHg 93%
    11:00 -2°C° 0.1 mm 6 mps 731 mmHg 93%
    12:00 -2°C° 0 mm 7 mps 732 mmHg 87%
    13:00 -1°C° 0 mm 7 mps 732 mmHg 81%
    14:00 0°C° 0 mm 7 mps 733 mmHg 74%
    15:00 0°C° 0.1 mm 7 mps 734 mmHg 72%
    16:00 0°C° 0.1 mm 7 mps 734 mmHg 69%
    17:00 0°C° 0.1 mm 7 mps 735 mmHg 67%
    18:00 -1°C° 0 mm 7 mps 736 mmHg 71%
    19:00 -2°C° 0 mm 7 mps 737 mmHg 76%
    20:00 -2°C° 0 mm 7 mps 739 mmHg 80%
    21:00 -3°C° 0 mm 7 mps 740 mmHg 77%
    22:00 -3°C° 0 mm 7 mps 741 mmHg 74%
    23:00 -4°C° 0 mm 6 mps 742 mmHg 70%
    Show more